Torna al catalogo

COSMOS 1375 DEB

AttivoLEO
NORAD 18278·DEBRIS·🇷🇺 Russia

Lanciato Jun 6, 1982 da Plesetsk Cosmodrome

Loading…

Prossimi Passaggi (prossime 24 ore)

TLE

AggiornatoSource: Space-Track

Epoca: Sep 14, 2026, 11:10 UTC

1 18278U 82055BA  26257.46546716  .00000388  00000-0  37591-3 0  9994
2 18278  65.8287  67.9780 0030910 148.8809 240.4064 13.90738271 64250

Traccia COSMOS 1375 DEB in tempo reale con AllMySat

Download on the App Store